User: anonymous   Login
Location: Cranbrook Institute of Science
(42.5830°N, 83.2450°W)
Time: 12:51:21
(UTC-05:00)
Language:

CZ-4B R/B - Orbit

View from above orbital plane
View from above orbital plane
View from above satellite
View from above satellite

Ground track
Ground track

The orbit data is extracted from the following two-line orbital elements,

1 29093U 06015B   16039.85195093  .00009361  00000-0  25556-3 0  9999
2 29093  97.4850 135.0578 0070653 290.4666  68.9002 15.35108639541568
Epoch (UTC): 08 February 2016 20:26:48
Eccentricity: 0.0070653
inclination: 97.4850°
perigee height: 412 km
apogee height: 509 km
right ascension of ascending node: 135.0578°
argument of perigee: 290.4666°
revolutions per day: 15.35108639
mean anomaly at epoch: 68.9002°
orbit number at epoch: 54156

The dashed part of the orbit path shows where the satellite is in the earth's shadow,  

DLR